Погода в Мехабаде

Иран     36°45′48″N   45°43′28″E
темп.,
°C
ветер,
м/с
пор.,
м/с
влажн.,
%
обл.,
%
осадки,
мм/ч
давл.,
гПа
погр.,
м
24 сентября, пт
пт2400:30+16ю48330 0.0 1008139
03:30+18ююз715300 0.0 1006566
06:30+16ююз815370 0.0 1007631
09:30+22юз1116290 0.0 10081535
12:30+24юз1317240 0.0 10072061
15:30+24юз1216230 0.0 10072459
18:30+20юз1015310 0.0 10081021
21:30+18юз814460 0.0 1010701
25 сентября, сб
сб2500:30+16ююз713530 0.0 1011604
03:30+15ююз813570 0.0 1012706
06:30+13ююз611600 0.0 1013433
09:30+18юз34392 0.0 10141637
12:30+23юз66250 0.0 10112160
15:30+22ююз109250 0.0 10101765
18:30+17ююз69370 0.0 1012296
21:30+14ююз45480 0.0 101486
26 сентября, вс
вс2600:30+12ююз44480 0.0 101448
03:30+11ююз33480 0.0 101622
06:30+10ююз11500 0.0 101711
09:30+17с45380 0.0 1017975
12:30+20с54330 0.0 10151306
15:30+21с43250 0.0 10141140
18:30+16ссв22320 0.0 101412
21:30+13с11380 0.0 101511
27 сентября, пн
пн2700:30+12с11420 0.0 101510
03:30+11ссз11460 0.0 101511
06:30+10ссз22671 0.0 101511
09:30+17с22400 0.0 1014652
12:30+23с32250 0.0 10111188
15:30+26ссв23170 0.0 10071487
18:30+17с22400 0.0 100915
21:30+14ююз11430 0.0 100911
28 сентября, вт
вт2800:30+13ююз11350 0.0 100911
03:30+12ююз11340 0.0 100911
06:30+11юз11350 0.0 101011
09:30+20зсз12230 0.0 1010720
12:30+26юз46100 0.0 10082503
15:30+25зсз24140 0.0 10072669
18:30+18ююз34240 0.0 101054
21:30+16ююз43280 0.0 101228